| time (UTC) | temp C | wind direction | speed KPH | gust KPH | rain 1hr cm | rain 24hr cm | rain mn cm | humidity % | barometer mb |
| 20260906233653 | 15 | 104 | 3.2 | 6.4 | 0.00 | 0.00 | 0.13 | 79 | 1016.9 |
| 20260906233153 | 14 | 90 | 6.4 | 9.7 | 0.00 | 0.00 | 0.13 | 80 | 1017.0 |
| 20260906232653 | 14 | 76 | 11.3 | 14.5 | 0.00 | 0.00 | 0.13 | 80 | 1017.0 |
| 20260906232154 | 14 | 99 | 8.0 | 11.3 | 0.00 | 0.00 | 0.13 | 80 | 1017.1 |
| 20260906231653 | 14 | 106 | 3.2 | 4.8 | 0.00 | 0.00 | 0.13 | 81 | 1017.1 |
| 20260906231154 | 14 | 84 | 4.8 | 6.4 | 0.00 | 0.00 | 0.13 | 82 | 1017.0 |
| 20260906230653 | 14 | 146 | 4.8 | 6.4 | 0.00 | 0.00 | 0.13 | 81 | 1017.1 |
| 20260906230153 | 14 | 100 | 6.4 | 8.0 | 0.00 | 0.00 | 0.13 | 80 | 1017.1 |
| 20260906225653 | 14 | 82 | 4.8 | 6.4 | 0.00 | 0.00 | 0.13 | 82 | 1017.1 |
| 20260906225153 | 14 | 74 | 6.4 | 8.0 | 0.00 | 0.00 | 0.13 | 81 | 1017.2 |
| 20260906224653 | 13 | 71 | 6.4 | 8.0 | 0.00 | 0.00 | 0.13 | 81 | 1017.2 |
| 20260906224153 | 13 | 97 | 4.8 | 6.4 | 0.00 | 0.00 | 0.13 | 81 | 1017.2 |
| 20260906223653 | 13 | 145 | 4.8 | 8.0 | 0.00 | 0.00 | 0.13 | 81 | 1017.3 |
| 20260906223153 | 13 | 76 | 6.4 | 8.0 | 0.00 | 0.00 | 0.13 | 82 | 1017.3 |
| 20260906222653 | 13 | 73 | 8.0 | 9.7 | 0.00 | 0.00 | 0.13 | 82 | 1017.3 |
| 20260906222153 | 13 | 91 | 8.0 | 9.7 | 0.00 | 0.00 | 0.13 | 82 | 1017.3 |
| 20260906221654 | 13 | 66 | 6.4 | 9.7 | 0.00 | 0.00 | 0.13 | 83 | 1017.3 |
| 20260906221153 | 13 | 76 | 4.8 | 8.0 | 0.00 | 0.00 | 0.13 | 82 | 1017.3 |
| 20260906220653 | 13 | 64 | 4.8 | 6.4 | 0.00 | 0.00 | 0.13 | 83 | 1017.4 |
| 20260906220154 | 13 | 96 | 3.2 | 3.2 | 0.00 | 0.00 | 0.13 | 82 | 1017.4 |
| 20260906215653 | 13 | 86 | 4.8 | 6.4 | 0.00 | 0.00 | 0.13 | 82 | 1017.4 |
| 20260906215155 | 13 | 79 | 4.8 | 4.8 | 0.00 | 0.00 | 0.13 | 82 | 1017.5 |
| 20260906214653 | 13 | 78 | 4.8 | 8.0 | 0.00 | 0.00 | 0.13 | 82 | 1017.5 |
| 20260906214153 | 13 | 74 | 3.2 | 4.8 | 0.00 | 0.00 | 0.13 | 83 | 1017.5 |
| 20260906213653 | 13 | 71 | 4.8 | 6.4 | 0.00 | 0.00 | 0.13 | 83 | 1017.5 |
| 20260906213153 | 13 | 72 | 3.2 | 3.2 | 0.00 | 0.00 | 0.13 | 83 | 1017.5 |
| 20260906212655 | 13 | 82 | 4.8 | 6.4 | 0.00 | 0.00 | 0.13 | 83 | 1017.5 |
| 20260906212153 | 13 | 62 | 1.6 | 1.6 | 0.00 | 0.00 | 0.13 | 84 | 1017.5 |
| 20260906211653 | 13 | 83 | 4.8 | 4.8 | 0.00 | 0.00 | 0.13 | 84 | 1017.4 |
| 20260906211153 | 13 | 101 | 3.2 | 4.8 | 0.00 | 0.00 | 0.13 | 85 | 1017.5 |
| 20260906210653 | 13 | 111 | 1.6 | 3.2 | 0.00 | 0.00 | 0.13 | 87 | 1017.5 |
| 20260906210154 | 12 | 66 | 4.8 | 4.8 | 0.00 | 0.00 | 0.13 | 87 | 1017.6 |
| 20260906205653 | 12 | 140 | 1.6 | 3.2 | 0.00 | 0.00 | 0.13 | 86 | 1017.6 |
| 20260906205154 | 12 | 249 | 1.6 | 3.2 | 0.00 | 0.00 | 0.13 | 86 | 1017.8 |
| 20260906204653 | 12 | 244 | 1.6 | 1.6 | 0.00 | 0.00 | 0.13 | 89 | 1017.8 |
| 20260906204154 | 12 | 242 | 3.2 | 4.8 | 0.00 | 0.00 | 0.13 | 89 | 1017.6 |
| 20260906203653 | 12 | 235 | 1.6 | 1.6 | 0.00 | 0.00 | 0.13 | 89 | 1017.8 |
| 20260906203153 | 12 | 164 | 1.6 | 3.2 | 0.00 | 0.00 | 0.13 | 90 | 1017.8 |
| 20260906202653 | 12 | 77 | 1.6 | 3.2 | 0.00 | 0.00 | 0.13 | 92 | 1017.9 |
| 20260906202154 | 12 | 54 | 1.6 | 3.2 | 0.00 | 0.00 | 0.13 | 93 | 1017.9 |
| 20260906201654 | 11 | 228 | 1.6 | 1.6 | 0.00 | 0.00 | 0.13 | 92 | 1017.9 |
| 20260906201153 | 11 | 122 | 1.6 | 1.6 | 0.00 | 0.00 | 0.13 | 92 | 1017.9 |
| 20260906200653 | 11 | 99 | 1.6 | 3.2 | 0.00 | 0.00 | 0.13 | 92 | 1018.0 |
| 20260906200154 | 11 | 136 | 3.2 | 4.8 | 0.00 | 0.00 | 0.13 | 93 | 1018.0 |
| 20260906195653 | 11 | 218 | 1.6 | 1.6 | 0.00 | 0.00 | 0.13 | 93 | 1018.0 |
| 20260906195154 | 11 | 225 | 3.2 | 4.8 | 0.00 | 0.00 | 0.13 | 92 | 1018.1 |
| 20260906194653 | 11 | 309 | 1.6 | 1.6 | 0.00 | 0.00 | 0.13 | 94 | 1018.1 |
| 20260906194153 | 11 | 60 | 3.2 | 3.2 | 0.00 | 0.00 | 0.13 | 94 | 1018.1 |
| 20260906193653 | 11 | 77 | 1.6 | 3.2 | 0.00 | 0.00 | 0.13 | 94 | 1018.1 |
| 20260906193153 | 11 | 52 | 4.8 | 4.8 | 0.00 | 0.00 | 0.13 | 94 | 1018.1 |
| 20260906192653 | 11 | 61 | 1.6 | 3.2 | 0.00 | 0.00 | 0.13 | 95 | 1018.2 |
| 20260906192153 | 10 | 347 | 1.6 | 3.2 | 0.00 | 0.00 | 0.13 | 95 | 1018.2 |
| 20260906191653 | 10 | 316 | 1.6 | 1.6 | 0.00 | 0.00 | 0.13 | 94 | 1018.2 |
| 20260906191154 | 10 | 49 | 1.6 | 1.6 | 0.00 | 0.00 | 0.13 | 95 | 1018.3 |
| 20260906190653 | 10 | 15 | 1.6 | 1.6 | 0.00 | 0.00 | 0.13 | 95 | 1018.4 |
| 20260906190153 | 10 | 55 | 1.6 | 3.2 | 0.00 | 0.00 | 0.13 | 94 | 1018.4 |
| 20260906185653 | 10 | 339 | 1.6 | 3.2 | 0.00 | 0.00 | 0.13 | 95 | 1018.4 |
| 20260906185153 | 10 | 70 | 3.2 | 3.2 | 0.00 | 0.00 | 0.13 | 94 | 1018.4 |
| 20260906184653 | 10 | 64 | 1.6 | 1.6 | 0.00 | 0.00 | 0.13 | 94 | 1018.5 |
| 20260906184155 | 10 | 61 | 1.6 | 3.2 | 0.00 | 0.00 | 0.13 | 94 | 1018.6 |
| 20260906183654 | 10 | 74 | 3.2 | 3.2 | 0.00 | 0.00 | 0.13 | 93 | 1018.6 |
| 20260906183153 | 10 | 44 | 1.6 | 1.6 | 0.00 | 0.00 | 0.13 | 94 | 1018.6 |
| 20260906182653 | 10 | 55 | 1.6 | 1.6 | 0.00 | 0.00 | 0.13 | 94 | 1018.6 |
| 20260906182153 | 10 | 68 | 1.6 | 3.2 | 0.00 | 0.00 | 0.13 | 94 | 1018.6 |
| 20260906181653 | 10 | 67 | 1.6 | 1.6 | 0.00 | 0.00 | 0.13 | 95 | 1018.8 |
| 20260906181154 | 10 | 32 | 1.6 | 1.6 | 0.00 | 0.00 | 0.13 | 94 | 1018.6 |
| 20260906180653 | 10 | 44 | 1.6 | 3.2 | 0.00 | 0.00 | 0.13 | 94 | 1018.8 |
| 20260906180155 | 10 | 17 | 0.0 | 1.6 | 0.00 | 0.00 | 0.13 | 94 | 1018.8 |
| 20260906175653 | 10 | 43 | 0.0 | 1.6 | 0.00 | 0.00 | 0.13 | 95 | 1018.8 |
| 20260906175153 | 9 | 25 | 1.6 | 1.6 | 0.00 | 0.00 | 0.13 | 95 | 1018.9 |
| 20260906174654 | 9 | 59 | 1.6 | 3.2 | 0.00 | 0.00 | 0.13 | 95 | 1018.9 |
| 20260906174154 | 9 | 74 | 1.6 | 1.6 | 0.00 | 0.00 | 0.13 | 95 | 1019.0 |
| 20260906173653 | 9 | 79 | 3.2 | 3.2 | 0.00 | 0.00 | 0.13 | 95 | 1019.0 |
| 20260906173153 | 9 | 41 | 1.6 | 3.2 | 0.00 | 0.00 | 0.13 | 95 | 1019.0 |
| 20260906172653 | 9 | 48 | 3.2 | 3.2 | 0.00 | 0.00 | 0.13 | 95 | 1019.0 |
| 20260906172153 | 9 | 31 | 1.6 | 3.2 | 0.00 | 0.00 | 0.13 | 95 | 1019.0 |
| 20260906171653 | 9 | 48 | 3.2 | 4.8 | 0.00 | 0.00 | 0.13 | 95 | 1019.1 |
| 20260906171153 | 9 | 59 | 1.6 | 3.2 | 0.00 | 0.00 | 0.13 | 95 | 1019.2 |
| 20260906170653 | 8 | 32 | 1.6 | 1.6 | 0.00 | 0.00 | 0.13 | 95 | 1019.2 |
| 20260906170154 | 8 | 40 | 3.2 | 3.2 | 0.00 | 0.00 | 0.13 | 94 | 1019.2 |
| 20260906165653 | 8 | 63 | 3.2 | 3.2 | 0.00 | 0.00 | 0.13 | 95 | 1019.3 |
| 20260906165153 | 8 | 29 | 1.6 | 1.6 | 0.00 | 0.00 | 0.13 | 95 | 1019.3 |
| 20260906164654 | 8 | 64 | 3.2 | 4.8 | 0.00 | 0.00 | 0.13 | 95 | 1019.4 |
| 20260906164158 | 8 | 42 | 1.6 | 3.2 | 0.00 | 0.00 | 0.13 | 95 | 1019.4 |
| 20260906163653 | 8 | 5 | 1.6 | 1.6 | 0.00 | 0.00 | 0.13 | 95 | 1019.5 |
| 20260906163153 | 8 | 52 | 3.2 | 3.2 | 0.00 | 0.00 | 0.13 | 96 | 1019.5 |
| 20260906162653 | 8 | 47 | 3.2 | 3.2 | 0.00 | 0.00 | 0.13 | 95 | 1019.6 |
| 20260906162154 | 8 | 35 | 3.2 | 4.8 | 0.00 | 0.00 | 0.13 | 95 | 1019.6 |
| 20260906161653 | 8 | 64 | 3.2 | 3.2 | 0.00 | 0.00 | 0.13 | 95 | 1019.6 |
| 20260906161153 | 8 | 67 | 1.6 | 3.2 | 0.00 | 0.00 | 0.13 | 94 | 1019.8 |
| 20260906160653 | 8 | 48 | 3.2 | 4.8 | 0.00 | 0.00 | 0.13 | 94 | 1019.6 |
| 20260906160154 | 8 | 72 | 4.8 | 4.8 | 0.00 | 0.00 | 0.13 | 93 | 1019.8 |
| 20260906155654 | 8 | 72 | 4.8 | 4.8 | 0.00 | 0.00 | 0.13 | 93 | 1019.8 |
| 20260906155153 | 8 | 72 | 1.6 | 1.6 | 0.00 | 0.00 | 0.13 | 93 | 1019.8 |
| 20260906154653 | 8 | 56 | 3.2 | 4.8 | 0.00 | 0.00 | 0.13 | 93 | 1019.8 |
| 20260906154154 | 8 | 332 | 3.2 | 3.2 | 0.00 | 0.00 | 0.13 | 92 | 1019.6 |
| 20260906153653 | 8 | 6 | 1.6 | 1.6 | 0.00 | 0.00 | 0.13 | 93 | 1019.6 |
| 20260906153153 | 8 | 269 | 3.2 | 4.8 | 0.00 | 0.00 | 0.13 | 93 | 1019.6 |
| 20260906152655 | 8 | 273 | 3.2 | 4.8 | 0.00 | 0.00 | 0.13 | 93 | 1019.5 |
| 20260906152153 | 8 | 286 | 4.8 | 4.8 | 0.00 | 0.00 | 0.13 | 93 | 1019.6 |
| 20260906151653 | 7 | 279 | 4.8 | 6.4 | 0.00 | 0.00 | 0.13 | 93 | 1019.5 |
| 20260906151154 | 7 | 292 | 4.8 | 6.4 | 0.00 | 0.00 | 0.13 | 94 | 1019.5 |
| 20260906150653 | 7 | 292 | 4.8 | 8.0 | 0.00 | 0.00 | 0.13 | 94 | 1019.5 |
| 20260906150157 | 7 | 309 | 4.8 | 8.0 | 0.00 | 0.00 | 0.13 | 94 | 1019.4 |
| 20260906145654 | 7 | 1 | 3.2 | 3.2 | 0.00 | 0.00 | 0.13 | 94 | 1019.5 |
| 20260906145154 | 7 | 352 | 1.6 | 3.2 | 0.00 | 0.00 | 0.13 | 93 | 1019.6 |
| 20260906144654 | 7 | 310 | 4.8 | 6.4 | 0.00 | 0.00 | 0.13 | 93 | 1019.6 |
| 20260906144153 | 7 | 336 | 3.2 | 3.2 | 0.00 | 0.00 | 0.13 | 93 | 1019.6 |
| 20260906143653 | 7 | 355 | 0.0 | 0.0 | 0.00 | 0.00 | 0.13 | 94 | 1019.8 |
| 20260906143153 | 7 | 340 | 1.6 | 3.2 | 0.00 | 0.00 | 0.13 | 94 | 1019.8 |
| 20260906142653 | 7 | 307 | 1.6 | 3.2 | 0.00 | 0.00 | 0.13 | 94 | 1019.5 |
| 20260906142153 | 7 | 282 | 3.2 | 4.8 | 0.00 | 0.00 | 0.13 | 94 | 1019.4 |
| 20260906141653 | 7 | 293 | 4.8 | 6.4 | 0.00 | 0.00 | 0.13 | 94 | 1019.4 |
| 20260906141154 | 7 | 294 | 3.2 | 3.2 | 0.00 | 0.00 | 0.13 | 94 | 1019.6 |
| 20260906140654 | 7 | 310 | 3.2 | 4.8 | 0.00 | 0.00 | 0.13 | 94 | 1019.6 |
| 20260906140154 | 7 | 310 | 3.2 | 3.2 | 0.00 | 0.00 | 0.13 | 95 | 1019.8 |
| 20260906135653 | 7 | 313 | 1.6 | 3.2 | 0.00 | 0.00 | 0.13 | 95 | 1019.8 |
| 20260906135153 | 7 | 296 | 4.8 | 4.8 | 0.00 | 0.00 | 0.13 | 95 | 1019.8 |
| 20260906134653 | 7 | 297 | 3.2 | 4.8 | 0.00 | 0.00 | 0.13 | 95 | 1019.8 |
| 20260906134153 | 7 | 320 | 3.2 | 4.8 | 0.00 | 0.00 | 0.13 | 95 | 1019.6 |
| 20260906133653 | 7 | 340 | 3.2 | 4.8 | 0.00 | 0.00 | 0.13 | 95 | 1019.8 |
| 20260906133153 | 7 | 335 | 1.6 | 1.6 | 0.05 | 0.00 | 0.13 | 94 | 1019.9 |
| 20260906132653 | 8 | 6 | 3.2 | 4.8 | 0.08 | 0.00 | 0.13 | 94 | 1019.9 |
| 20260906132154 | 8 | 352 | 1.6 | 1.6 | 0.08 | 0.00 | 0.10 | 94 | 1019.8 |
| 20260906131654 | 8 | 244 | 1.6 | 3.2 | 0.08 | 0.00 | 0.10 | 93 | 1019.9 |
| 20260906131153 | 8 | 244 | 3.2 | 4.8 | 0.08 | 0.00 | 0.10 | 93 | 1020.0 |
| 20260906130653 | 8 | 254 | 4.8 | 4.8 | 0.10 | 0.00 | 0.10 | 93 | 1020.0 |
| 20260906130153 | 7 | 243 | 6.4 | 6.4 | 0.10 | 0.00 | 0.10 | 94 | 1020.1 |
| 20260906125653 | 7 | 277 | 4.8 | 4.8 | 0.10 | 0.00 | 0.10 | 94 | 1020.1 |
| 20260906125154 | 7 | 270 | 3.2 | 4.8 | 0.10 | 0.00 | 0.10 | 94 | 1020.1 |
| 20260906124653 | 7 | 301 | 3.2 | 3.2 | 0.10 | 0.00 | 0.10 | 94 | 1020.1 |
| 20260906124153 | 7 | 272 | 3.2 | 3.2 | 0.10 | 0.00 | 0.10 | 94 | 1020.1 |
| 20260906123653 | 7 | 313 | 3.2 | 4.8 | 0.08 | 0.00 | 0.10 | 94 | 1020.1 |
| 20260906123153 | 7 | 270 | 3.2 | 3.2 | 0.08 | 0.00 | 0.10 | 94 | 1020.2 |
| 20260906122654 | 7 | 319 | 1.6 | 1.6 | 0.05 | 0.00 | 0.08 | 94 | 1020.3 |
| 20260906122153 | 7 | 337 | 3.2 | 4.8 | 0.03 | 0.00 | 0.05 | 94 | 1020.2 |
| 20260906121653 | 7 | 337 | 3.2 | 3.2 | 0.03 | 0.00 | 0.05 | 94 | 1020.3 |
| 20260906121153 | 7 | 298 | 1.6 | 1.6 | 0.03 | 0.00 | 0.03 | 93 | 1020.3 |
| 20260906120653 | 7 | 307 | 3.2 | 3.2 | 0.00 | 0.00 | 0.03 | 93 | 1020.4 |
| 20260906120153 | 7 | 294 | 3.2 | 4.8 | 0.00 | 0.00 | 0.03 | 93 | 1020.5 |
| 20260906115653 | 8 | 328 | 3.2 | 3.2 | 0.00 | 0.00 | 0.00 | 93 | 1020.6 |
| 20260906115153 | 8 | 295 | 1.6 | 3.2 | 0.00 | 0.00 | 0.00 | 93 | 1020.9 |
| 20260906114653 | 8 | 281 | 3.2 | 4.8 | 0.00 | 0.00 | 0.00 | 93 | 1021.1 |
| 20260906114154 | 8 | 337 | 1.6 | 1.6 | 0.00 | 0.00 | 0.00 | 93 | 1021.1 |
| 20260906113653 | 8 | 316 | 1.6 | 3.2 | 0.00 | 0.00 | 0.00 | 92 | 1021.2 |
| 20260906113152 | 8 | 357 | 1.6 | 1.6 | 0.00 | 0.00 | 0.00 | 92 | 1021.2 |
| 20260906112655 | 8 | 343 | 1.6 | 1.6 | 0.00 | 0.00 | 0.00 | 92 | 1021.2 |
| 20260906112153 | 8 | 178 | 1.6 | 1.6 | 0.00 | 0.00 | 0.00 | 92 | 1021.3 |
| 20260906111653 | 8 | 315 | 1.6 | 3.2 | 0.00 | 0.00 | 0.00 | 92 | 1021.3 |
| 20260906111153 | 8 | 351 | 1.6 | 1.6 | 0.00 | 0.00 | 0.00 | 92 | 1021.3 |
| 20260906110653 | 8 | 221 | 1.6 | 1.6 | 0.00 | 0.00 | 0.00 | 92 | 1021.4 |
| 20260906110153 | 8 | 286 | 1.6 | 1.6 | 0.00 | 0.00 | 0.00 | 91 | 1021.4 |
| 20260906105653 | 8 | 346 | 3.2 | 4.8 | 0.00 | 0.00 | 0.00 | 92 | 1021.4 |
| 20260906105154 | 8 | 223 | 1.6 | 1.6 | 0.00 | 0.00 | 0.00 | 92 | 1021.4 |
| 20260906104654 | 7 | 278 | 1.6 | 1.6 | 0.00 | 0.00 | 0.00 | 92 | 1021.5 |
| 20260906104153 | 7 | 244 | 1.6 | 1.6 | 0.00 | 0.00 | 0.00 | 93 | 1021.7 |
| 20260906103653 | 7 | 269 | 3.2 | 3.2 | 0.00 | 0.00 | 0.00 | 93 | 1021.7 |
| 20260906103154 | 7 | 259 | 4.8 | 4.8 | 0.00 | 0.00 | 0.00 | 93 | 1021.5 |
| 20260906102653 | 7 | 273 | 6.4 | 8.0 | 0.00 | 0.00 | 0.00 | 93 | 1021.4 |
| 20260906102153 | 7 | 258 | 3.2 | 4.8 | 0.00 | 0.00 | 0.00 | 94 | 1021.5 |
| 20260906101654 | 7 | 294 | 3.2 | 3.2 | 0.00 | 0.00 | 0.00 | 94 | 1021.1 |
| 20260906101153 | 7 | 32 | 1.6 | 3.2 | 0.00 | 0.00 | 0.00 | 95 | 1021.0 |
| 20260906100654 | 7 | 339 | 1.6 | 3.2 | 0.00 | 0.00 | 0.00 | 94 | 1021.0 |
| 20260906100153 | 7 | 287 | 4.8 | 4.8 | 0.00 | 0.00 | 0.00 | 94 | 1021.3 |
| 20260906095654 | 7 | 304 | 4.8 | 8.0 | 0.00 | 0.00 | 0.00 | 94 | 1021.1 |
| 20260906095152 | 7 | 292 | 4.8 | 4.8 | 0.00 | 0.00 | 0.00 | 95 | 1021.1 |
| 20260906094653 | 7 | 300 | 4.8 | 6.4 | 0.00 | 0.00 | 0.00 | 95 | 1021.1 |
| 20260906094153 | 7 | 302 | 4.8 | 6.4 | 0.00 | 0.00 | 0.00 | 95 | 1021.2 |
| 20260906093654 | 7 | 313 | 3.2 | 4.8 | 0.00 | 0.00 | 0.00 | 95 | 1021.3 |
| 20260906093153 | 7 | 331 | 4.8 | 6.4 | 0.00 | 0.00 | 0.00 | 95 | 1021.5 |
| 20260906092653 | 7 | 294 | 3.2 | 3.2 | 0.00 | 0.00 | 0.00 | 95 | 1021.7 |
| 20260906092203 | 7 | 287 | 3.2 | 3.2 | 0.00 | 0.00 | 0.00 | 95 | 1021.7 |
| 20260906091653 | 7 | 262 | 4.8 | 6.4 | 0.00 | 0.00 | 0.00 | 95 | 1021.8 |
| 20260906091153 | 7 | 303 | 6.4 | 8.0 | 0.00 | 0.00 | 0.00 | 95 | 1021.7 |
| 20260906090653 | 7 | 289 | 6.4 | 6.4 | 0.00 | 0.00 | 0.00 | 95 | 1021.7 |
| 20260906090153 | 7 | 304 | 3.2 | 4.8 | 0.00 | 0.00 | 0.00 | 95 | 1021.7 |
| 20260906085653 | 8 | 305 | 4.8 | 8.0 | 0.00 | 0.00 | 0.00 | 95 | 1021.7 |
| 20260906085153 | 8 | 343 | 1.6 | 3.2 | 0.00 | 0.00 | 0.00 | 95 | 1021.8 |
| 20260906084653 | 8 | 344 | 3.2 | 4.8 | 0.00 | 0.00 | 0.00 | 95 | 1021.9 |
| 20260906084153 | 8 | 304 | 4.8 | 6.4 | 0.00 | 0.00 | 0.00 | 94 | 1021.9 |
| 20260906083653 | 8 | 325 | 3.2 | 3.2 | 0.00 | 0.00 | 0.00 | 95 | 1022.1 |
| 20260906083154 | 8 | 312 | 1.6 | 3.2 | 0.00 | 0.00 | 0.00 | 95 | 1022.2 |
| 20260906082654 | 8 | 282 | 1.6 | 1.6 | 0.00 | 0.00 | 0.00 | 95 | 1022.2 |
| 20260906082153 | 8 | 299 | 1.6 | 1.6 | 0.00 | 0.00 | 0.00 | 94 | 1022.3 |
| 20260906081653 | 8 | 61 | 3.2 | 3.2 | 0.00 | 0.00 | 0.00 | 94 | 1022.4 |
| 20260906081153 | 8 | 223 | 0.0 | 1.6 | 0.00 | 0.00 | 0.00 | 94 | 1022.4 |
| 20260906080653 | 8 | 238 | 3.2 | 3.2 | 0.00 | 0.00 | 0.00 | 94 | 1022.4 |
| 20260906080153 | 8 | 240 | 3.2 | 3.2 | 0.00 | 0.00 | 0.00 | 94 | 1022.5 |
| 20260906075653 | 8 | 225 | 1.6 | 3.2 | 0.00 | 0.00 | 0.00 | 94 | 1022.7 |
| 20260906075153 | 8 | 237 | 1.6 | 1.6 | 0.00 | 0.00 | 0.00 | 93 | 1022.5 |
| 20260906074653 | 8 | 249 | 1.6 | 3.2 | 0.00 | 0.00 | 0.00 | 94 | 1022.4 |
| 20260906074153 | 8 | 265 | 3.2 | 3.2 | 0.00 | 0.00 | 0.00 | 93 | 1022.4 |
| 20260906073653 | 8 | 278 | 1.6 | 1.6 | 0.00 | 0.00 | 0.00 | 93 | 1022.5 |
| 20260906073153 | 8 | 218 | 1.6 | 1.6 | 0.00 | 0.00 | 0.00 | 94 | 1022.4 |
| 20260906072654 | 8 | 14 | 1.6 | 1.6 | 0.00 | 0.00 | 0.00 | 94 | 1022.5 |
| 20260906072153 | 8 | 68 | 3.2 | 3.2 | 0.00 | 0.00 | 0.00 | 94 | 1022.7 |
| 20260906071653 | 8 | 96 | 3.2 | 3.2 | 0.00 | 0.00 | 0.00 | 94 | 1022.7 |
| 20260906071153 | 8 | 73 | 1.6 | 1.6 | 0.00 | 0.00 | 0.00 | 94 | 1022.7 |
| 20260906070653 | 8 | 23 | 0.0 | 1.6 | 0.00 | 0.00 | 0.00 | 93 | 1022.8 |
| 20260906070153 | 8 | 44 | 1.6 | 1.6 | 0.00 | 0.00 | 0.00 | 94 | 1022.8 |
| 20260906065653 | 8 | 73 | 1.6 | 1.6 | 0.00 | 0.00 | 0.00 | 94 | 1022.8 |
| 20260906065153 | 8 | 33 | 3.2 | 3.2 | 0.00 | 0.00 | 0.00 | 93 | 1022.8 |
| 20260906064653 | 8 | 39 | 3.2 | 3.2 | 0.00 | 0.00 | 0.00 | 93 | 1022.8 |
| 20260906064153 | 9 | 12 | 1.6 | 1.6 | 0.00 | 0.00 | 0.00 | 92 | 1022.8 |
| 20260906063653 | 9 | 342 | 3.2 | 3.2 | 0.00 | 0.00 | 0.00 | 91 | 1022.8 |
| 20260906063154 | 9 | 259 | 1.6 | 1.6 | 0.00 | 0.00 | 0.00 | 92 | 1022.8 |
| 20260906062653 | 9 | 244 | 1.6 | 1.6 | 0.00 | 0.00 | 0.00 | 92 | 1022.8 |
| 20260906062153 | 8 | 225 | 1.6 | 1.6 | 0.00 | 0.00 | 0.00 | 92 | 1022.8 |
| 20260906061653 | 8 | 254 | 1.6 | 1.6 | 0.00 | 0.00 | 0.00 | 92 | 1022.8 |
| 20260906061153 | 8 | 298 | 1.6 | 1.6 | 0.00 | 0.00 | 0.00 | 93 | 1022.8 |
| 20260906060653 | 8 | 271 | 1.6 | 1.6 | 0.00 | 0.00 | 0.00 | 93 | 1022.9 |
| 20260906060153 | 8 | 214 | 1.6 | 1.6 | 0.00 | 0.00 | 0.00 | 93 | 1022.9 |
| 20260906055654 | 8 | 346 | 0.0 | 1.6 | 0.00 | 0.00 | 0.33 | 93 | 1022.8 |
| 20260906055153 | 8 | 49 | 1.6 | 1.6 | 0.00 | 0.00 | 0.33 | 93 | 1022.8 |
| 20260906054653 | 8 | 38 | 3.2 | 3.2 | 0.00 | 0.00 | 0.33 | 92 | 1022.8 |
| 20260906054153 | 8 | 354 | 3.2 | 3.2 | 0.00 | 0.00 | 0.33 | 92 | 1022.8 |
| 20260906053653 | 9 | 44 | 3.2 | 4.8 | 0.00 | 0.00 | 0.33 | 92 | 1022.8 |
| 20260906053154 | 9 | 360 | 1.6 | 3.2 | 0.00 | 0.00 | 0.33 | 92 | 1022.8 |
| 20260906052653 | 9 | 316 | 1.6 | 1.6 | 0.00 | 0.00 | 0.33 | 92 | 1022.9 |
| 20260906052153 | 9 | 260 | 4.8 | 4.8 | 0.00 | 0.00 | 0.33 | 91 | 1022.9 |
| 20260906051653 | 9 | 347 | 1.6 | 3.2 | 0.00 | 0.00 | 0.33 | 92 | 1022.9 |
| 20260906051153 | 9 | 292 | 3.2 | 4.8 | 0.00 | 0.00 | 0.33 | 92 | 1022.8 |
| 20260906050653 | 9 | 266 | 6.4 | 9.7 | 0.00 | 0.00 | 0.33 | 92 | 1022.8 |
| 20260906050154 | 9 | 282 | 6.4 | 9.7 | 0.00 | 0.00 | 0.33 | 92 | 1022.9 |
| 20260906045653 | 9 | 277 | 4.8 | 6.4 | 0.00 | 0.00 | 0.33 | 92 | 1022.9 |
| 20260906045153 | 9 | 279 | 6.4 | 8.0 | 0.00 | 0.00 | 0.33 | 92 | 1023.0 |
| 20260906044653 | 9 | 278 | 6.4 | 8.0 | 0.00 | 0.00 | 0.33 | 92 | 1023.0 |
| 20260906044154 | 9 | 289 | 6.4 | 8.0 | 0.00 | 0.00 | 0.33 | 92 | 1023.0 |
| 20260906043653 | 9 | 294 | 4.8 | 4.8 | 0.00 | 0.00 | 0.33 | 93 | 1023.1 |
| 20260906043154 | 9 | 266 | 3.2 | 3.2 | 0.00 | 0.00 | 0.33 | 93 | 1023.2 |
| 20260906042655 | 9 | 262 | 1.6 | 1.6 | 0.00 | 0.00 | 0.33 | 93 | 1023.1 |
| 20260906042153 | 9 | 246 | 3.2 | 4.8 | 0.00 | 0.00 | 0.33 | 93 | 1023.1 |
| 20260906041654 | 9 | 267 | 4.8 | 6.4 | 0.00 | 0.00 | 0.33 | 93 | 1023.1 |
| 20260906041154 | 9 | 251 | 6.4 | 8.0 | 0.00 | 0.00 | 0.33 | 92 | 1023.1 |
| 20260906040653 | 9 | 246 | 3.2 | 3.2 | 0.00 | 0.00 | 0.33 | 92 | 1023.1 |
| 20260906040153 | 9 | 261 | 3.2 | 4.8 | 0.00 | 0.00 | 0.33 | 92 | 1023.0 |
| 20260906035654 | 9 | 231 | 3.2 | 3.2 | 0.00 | 0.00 | 0.33 | 93 | 1023.1 |
| 20260906035153 | 9 | 248 | 3.2 | 3.2 | 0.00 | 0.00 | 0.33 | 93 | 1023.0 |
| 20260906034653 | 9 | 224 | 3.2 | 3.2 | 0.00 | 0.00 | 0.33 | 93 | 1023.0 |
| 20260906034153 | 9 | 283 | 3.2 | 3.2 | 0.00 | 0.00 | 0.33 | 93 | 1022.9 |
| 20260906033653 | 9 | 305 | 3.2 | 3.2 | 0.00 | 0.00 | 0.33 | 94 | 1022.7 |
| 20260906033156 | 9 | 291 | 1.6 | 3.2 | 0.00 | 0.00 | 0.33 | 94 | 1022.7 |
| 20260906032653 | 9 | 7 | 0.0 | 0.0 | 0.00 | 0.00 | 0.33 | 94 | 1022.5 |
| 20260906032154 | 9 | 269 | 1.6 | 1.6 | 0.00 | 0.00 | 0.33 | 94 | 1022.4 |
| 20260906031653 | 9 | 263 | 1.6 | 1.6 | 0.00 | 0.00 | 0.33 | 94 | 1022.4 |
| 20260906031153 | 9 | 325 | 1.6 | 1.6 | 0.00 | 0.00 | 0.33 | 94 | 1022.3 |
| 20260906030653 | 9 | 320 | 1.6 | 3.2 | 0.00 | 0.00 | 0.33 | 94 | 1022.1 |
| 20260906030153 | 8 | 359 | 1.6 | 1.6 | 0.00 | 0.00 | 0.33 | 94 | 1022.1 |
| 20260906025653 | 8 | 328 | 3.2 | 3.2 | 0.00 | 0.00 | 0.33 | 94 | 1022.1 |
| 20260906025154 | 9 | 332 | 4.8 | 4.8 | 0.00 | 0.00 | 0.33 | 94 | 1022.0 |
| 20260906024653 | 9 | 306 | 1.6 | 3.2 | 0.00 | 0.00 | 0.33 | 94 | 1022.1 |
| 20260906024153 | 9 | 347 | 1.6 | 3.2 | 0.00 | 0.00 | 0.33 | 93 | 1022.1 |
| 20260906023653 | 9 | 6 | 3.2 | 3.2 | 0.00 | 0.00 | 0.33 | 93 | 1022.0 |
| 20260906023154 | 9 | 343 | 3.2 | 4.8 | 0.00 | 0.00 | 0.33 | 93 | 1022.0 |
| 20260906022653 | 9 | 285 | 3.2 | 3.2 | 0.00 | 0.00 | 0.33 | 94 | 1022.1 |
| 20260906022153 | 9 | 287 | 1.6 | 3.2 | 0.00 | 0.00 | 0.33 | 94 | 1022.1 |
| 20260906021654 | 9 | 331 | 4.8 | 4.8 | 0.00 | 0.00 | 0.33 | 92 | 1022.0 |
| 20260906021153 | 9 | 322 | 3.2 | 4.8 | 0.00 | 0.00 | 0.33 | 92 | 1022.1 |
| 20260906020655 | 9 | 13 | 3.2 | 4.8 | 0.00 | 0.00 | 0.33 | 93 | 1022.1 |
| 20260906020154 | 10 | 59 | 3.2 | 3.2 | 0.00 | 0.00 | 0.33 | 94 | 1022.2 |
| 20260906015654 | 10 | 2 | 4.8 | 6.4 | 0.00 | 0.00 | 0.33 | 94 | 1022.2 |
| 20260906015153 | 10 | 357 | 1.6 | 3.2 | 0.00 | 0.00 | 0.33 | 94 | 1022.2 |
| 20260906014654 | 10 | 331 | 4.8 | 6.4 | 0.00 | 0.00 | 0.33 | 93 | 1022.2 |
| 20260906014153 | 10 | 21 | 1.6 | 1.6 | 0.00 | 0.00 | 0.33 | 93 | 1022.2 |
| 20260906013653 | 10 | 360 | 3.2 | 3.2 | 0.03 | 0.00 | 0.33 | 93 | 1022.3 |
| 20260906013154 | 10 | 62 | 1.6 | 3.2 | 0.03 | 0.00 | 0.33 | 93 | 1022.3 |
| 20260906012653 | 10 | 61 | 1.6 | 3.2 | 0.03 | 0.00 | 0.33 | 93 | 1022.3 |
| 20260906012153 | 10 | 64 | 3.2 | 3.2 | 0.03 | 0.00 | 0.33 | 93 | 1022.3 |
| 20260906011653 | 10 | 37 | 0.0 | 1.6 | 0.03 | 0.00 | 0.33 | 92 | 1022.3 |
| 20260906011153 | 10 | 231 | 1.6 | 1.6 | 0.03 | 0.00 | 0.33 | 92 | 1022.3 |
| 20260906010653 | 10 | 26 | 1.6 | 1.6 | 0.03 | 0.00 | 0.33 | 93 | 1022.2 |
| 20260906010153 | 10 | 60 | 3.2 | 3.2 | 0.03 | 0.00 | 0.33 | 92 | 1022.1 |
| 20260906005653 | 10 | 326 | 1.6 | 1.6 | 0.03 | 0.00 | 0.33 | 92 | 1022.1 |
| 20260906005153 | 10 | 333 | 1.6 | 3.2 | 0.05 | 0.00 | 0.36 | 92 | 1022.1 |
| 20260906004653 | 10 | 339 | 4.8 | 4.8 | 0.05 | 0.00 | 0.36 | 92 | 1022.1 |
| 20260906004153 | 10 | 345 | 1.6 | 3.2 | 0.03 | 0.00 | 0.36 | 91 | 1022.0 |
| 20260906003653 | 10 | 51 | 3.2 | 3.2 | 0.00 | 0.00 | 0.36 | 92 | 1022.0 |
| 20260906003154 | 10 | 13 | 3.2 | 3.2 | 0.00 | 0.00 | 0.30 | 92 | 1022.0 |
| 20260906002653 | 10 | 38 | 4.8 | 6.4 | 0.00 | 0.00 | 0.30 | 92 | 1022.1 |
| 20260906002153 | 10 | 47 | 3.2 | 4.8 | 0.00 | 0.00 | 0.30 | 93 | 1022.1 |
| 20260906001653 | 10 | 34 | 1.6 | 3.2 | 0.00 | 0.00 | 0.30 | 92 | 1022.1 |
| 20260906001153 | 10 | 11 | 1.6 | 3.2 | 0.00 | 0.00 | 0.30 | 93 | 1022.1 |
| 20260906000653 | 10 | 32 | 3.2 | 3.2 | 0.00 | 0.00 | 0.30 | 92 | 1022.1 |
| 20260906000154 | 10 | 30 | 3.2 | 4.8 | 0.00 | 0.00 | 0.30 | 93 | 1022.0 |
| 20260905235653 | 10 | 53 | 4.8 | 6.4 | 0.00 | 0.00 | 0.30 | 92 | 1021.9 |
| 20260905235154 | 10 | 339 | 3.2 | 6.4 | 0.00 | 0.00 | 0.30 | 93 | 1022.0 |
| 20260905234653 | 10 | 26 | 3.2 | 6.4 | 0.00 | 0.00 | 0.30 | 93 | 1022.1 |
| 20260905234154 | 10 | 9 | 3.2 | 3.2 | 0.00 | 0.00 | 0.30 | 92 | 1022.1 |